• In Kazakhstan
  • List of Countries
  • For 7 days
  • Water Temperature
  • Weather Map
  • News
  • Weather Widgets
  • user-avatar
    Login

    Hourly Weather Kaprun

    Today, 23 September, Monday

    Time Temperature Precipitation Wind Pressure Humidity
    00:00 +7°C° 0 mm 1 mps 596 mmHg 84%
    01:00 +7°C° 0 mm 1 mps 596 mmHg 83%
    02:00 +7°C° 0 mm 1 mps 596 mmHg 83%
    03:00 +8°C° 0 mm 1 mps 596 mmHg 82%
    04:00 +7°C° 0 mm 0 mps 596 mmHg 82%
    05:00 +7°C° 0.1 mm 0 mps 596 mmHg 84%
    06:00 +7°C° 0.1 mm 0 mps 596 mmHg 86%
    07:00 +7°C° 0 mm 0 mps 597 mmHg 87%
    08:00 +8°C° 0.8 mm 1 mps 597 mmHg 89%
    09:00 +8°C° 0.8 mm 1 mps 597 mmHg 92%
    10:00 +7°C° 0.8 mm 2 mps 597 mmHg 94%
    11:00 +6°C° 1.3 mm 2 mps 596 mmHg 95%
    12:00 +4°C° 1.3 mm 3 mps 596 mmHg 96%
    13:00 +4°C° 1.3 mm 3 mps 596 mmHg 97%
    14:00 +3°C° 2.2 mm 3 mps 596 mmHg 97%
    15:00 +3°C° 2.2 mm 2 mps 596 mmHg 97%
    16:00 +3°C° 2.2 mm 2 mps 595 mmHg 97%
    17:00 +3°C° 0.6 mm 2 mps 596 mmHg 97%
    18:00 +3°C° 0.6 mm 2 mps 596 mmHg 97%
    19:00 +3°C° 0.6 mm 2 mps 596 mmHg 97%
    20:00 +3°C° 0.2 mm 2 mps 596 mmHg 98%
    21:00 +3°C° 0.2 mm 2 mps 596 mmHg 98%
    22:00 +4°C° 0.2 mm 1 mps 597 mmHg 98%
    23:00 +4°C° 0 mm 1 mps 597 mmHg 98%

    Tomorrow, 24 September, Tuesday

    Time Temperature Precipitation Wind Pressure Humidity
    00:00 +4°C° 0 mm 1 mps 597 mmHg 98%
    01:00 +4°C° 0 mm 1 mps 597 mmHg 97%
    02:00 +3°C° 0 mm 1 mps 596 mmHg 97%
    03:00 +3°C° 0 mm 1 mps 596 mmHg 96%
    04:00 +2°C° 0 mm 1 mps 596 mmHg 96%
    05:00 +3°C° 0 mm 1 mps 596 mmHg 95%
    06:00 +3°C° 0 mm 1 mps 596 mmHg 94%
    07:00 +3°C° 0 mm 1 mps 596 mmHg 92%
    08:00 +5°C° 0 mm 1 mps 597 mmHg 85%
    09:00 +7°C° 0 mm 1 mps 597 mmHg 78%
    10:00 +10°C° 0 mm 1 mps 598 mmHg 70%
    11:00 +11°C° 0 mm 1 mps 598 mmHg 65%
    12:00 +12°C° 0 mm 1 mps 598 mmHg 60%
    13:00 +13°C° 0 mm 1 mps 598 mmHg 55%
    14:00 +13°C° 0 mm 1 mps 598 mmHg 57%
    15:00 +12°C° 0 mm 1 mps 597 mmHg 60%
    16:00 +12°C° 0 mm 1 mps 597 mmHg 63%
    17:00 +10°C° 0.1 mm 1 mps 596 mmHg 73%
    18:00 +8°C° 0.1 mm 1 mps 595 mmHg 82%
    19:00 +5°C° 0.1 mm 0 mps 595 mmHg 92%
    20:00 +5°C° 0 mm 0 mps 595 mmHg 92%
    21:00 +5°C° 0 mm 0 mps 595 mmHg 92%
    22:00 +4°C° 0 mm 0 mps 595 mmHg 93%
    23:00 +5°C° 0 mm 1 mps 595 mmHg 92%

    Day after tomorrow, 25 September, Wednesday

    Time Temperature Precipitation Wind Pressure Humidity
    00:00 +5°C° 0 mm 1 mps 595 mmHg 91%
    01:00 +5°C° 0 mm 1 mps 594 mmHg 90%
    02:00 +5°C° 0 mm 1 mps 594 mmHg 90%
    03:00 +5°C° 0 mm 1 mps 594 mmHg 90%
    04:00 +4°C° 0 mm 1 mps 594 mmHg 91%
    05:00 +5°C° 0.1 mm 1 mps 594 mmHg 90%
    06:00 +5°C° 0.1 mm 0 mps 594 mmHg 89%
    07:00 +5°C° 0.1 mm 0 mps 594 mmHg 88%
    08:00 +6°C° 1.2 mm 1 mps 594 mmHg 90%
    09:00 +6°C° 1.2 mm 1 mps 595 mmHg 92%
    10:00 +6°C° 1.2 mm 1 mps 595 mmHg 94%
    11:00 +6°C° 1.8 mm 1 mps 594 mmHg 95%
    12:00 +5°C° 1.8 mm 1 mps 594 mmHg 96%
    13:00 +4°C° 1.8 mm 1 mps 594 mmHg 96%
    14:00 +4°C° 1.5 mm 1 mps 593 mmHg 97%
    15:00 +4°C° 1.5 mm 1 mps 593 mmHg 97%
    16:00 +3°C° 1.5 mm 1 mps 593 mmHg 97%
    17:00 +3°C° 0.6 mm 1 mps 593 mmHg 97%
    18:00 +3°C° 0.6 mm 1 mps 594 mmHg 97%
    19:00 +3°C° 0.6 mm 1 mps 594 mmHg 97%
    20:00 +3°C° 0.2 mm 1 mps 594 mmHg 97%
    21:00 +3°C° 0.2 mm 1 mps 594 mmHg 97%
    22:00 +3°C° 0.2 mm 1 mps 594 mmHg 97%
    23:00 +3°C° 0 mm 1 mps 594 mmHg 97%

    26 September, Thursday

    Time Temperature Precipitation Wind Pressure Humidity
    00:00 +3°C° 0 mm 1 mps 594 mmHg 96%
    01:00 +3°C° 0 mm 1 mps 594 mmHg 96%
    02:00 +2°C° 0 mm 1 mps 594 mmHg 96%
    03:00 +2°C° 0 mm 1 mps 594 mmHg 95%
    04:00 +2°C° 0 mm 1 mps 594 mmHg 95%
    05:00 +2°C° 0.2 mm 1 mps 594 mmHg 94%
    06:00 +3°C° 0.2 mm 1 mps 595 mmHg 94%
    07:00 +3°C° 0.2 mm 1 mps 595 mmHg 93%
    08:00 +4°C° 0.3 mm 1 mps 596 mmHg 92%
    09:00 +5°C° 0.3 mm 1 mps 597 mmHg 91%
    10:00 +6°C° 0.3 mm 1 mps 597 mmHg 90%
    11:00 +6°C° 0.3 mm 1 mps 597 mmHg 90%
    12:00 +6°C° 0.3 mm 1 mps 597 mmHg 90%
    13:00 +6°C° 0.3 mm 1 mps 597 mmHg 90%
    14:00 +7°C° 0.1 mm 1 mps 598 mmHg 88%
    15:00 +7°C° 0.1 mm 1 mps 598 mmHg 86%
    16:00 +8°C° 0.1 mm 1 mps 598 mmHg 84%
    17:00 +7°C° 0.3 mm 1 mps 598 mmHg 88%
    18:00 +6°C° 0.3 mm 1 mps 598 mmHg 91%
    19:00 +5°C° 0.3 mm 1 mps 598 mmHg 94%
    20:00 +6°C° 0.5 mm 1 mps 598 mmHg 94%
    21:00 +6°C° 0.5 mm 1 mps 599 mmHg 95%
    22:00 +6°C° 0.5 mm 1 mps 599 mmHg 95%
    23:00 +5°C° 0.1 mm 1 mps 599 mmHg 95%

    27 September, Friday

    Time Temperature Precipitation Wind Pressure Humidity
    00:00 +4°C° 0.1 mm 1 mps 598 mmHg 94%
    01:00 +4°C° 0.1 mm 1 mps 598 mmHg 94%
    02:00 +4°C° 0 mm 1 mps 598 mmHg 94%
    03:00 +3°C° 0 mm 1 mps 598 mmHg 94%
    04:00 +3°C° 0 mm 1 mps 597 mmHg 94%
    05:00 +4°C° 0 mm 1 mps 598 mmHg 92%
    06:00 +4°C° 0 mm 1 mps 598 mmHg 91%
    07:00 +5°C° 0 mm 1 mps 598 mmHg 90%
    08:00 +7°C° 0 mm 1 mps 599 mmHg 84%
    09:00 +9°C° 0 mm 1 mps 600 mmHg 78%
    10:00 +11°C° 0 mm 1 mps 601 mmHg 72%
    11:00 +12°C° 0 mm 1 mps 601 mmHg 69%
    12:00 +13°C° 0 mm 1 mps 601 mmHg 65%
    13:00 +13°C° 0 mm 1 mps 601 mmHg 62%
    14:00 +13°C° 0.2 mm 1 mps 601 mmHg 69%
    15:00 +12°C° 0.2 mm 1 mps 600 mmHg 76%
    16:00 +11°C° 0.2 mm 1 mps 600 mmHg 83%
    17:00 +9°C° 0.2 mm 1 mps 599 mmHg 87%
    18:00 +8°C° 0.2 mm 1 mps 598 mmHg 91%
    19:00 +6°C° 0.2 mm 1 mps 598 mmHg 96%
    20:00 +6°C° 0.3 mm 1 mps 598 mmHg 96%
    21:00 +6°C° 0.3 mm 1 mps 598 mmHg 96%
    22:00 +6°C° 0.3 mm 0 mps 599 mmHg 96%
    23:00 +5°C° 0.3 mm 0 mps 599 mmHg 97%

    28 September, Saturday

    Time Temperature Precipitation Wind Pressure Humidity
    00:00 +5°C° 0.3 mm 0 mps 598 mmHg 97%
    01:00 +5°C° 0.3 mm 0 mps 598 mmHg 97%
    02:00 +5°C° 0 mm 0 mps 598 mmHg 97%
    03:00 +5°C° 0 mm 0 mps 598 mmHg 96%
    04:00 +4°C° 0 mm 0 mps 598 mmHg 96%
    05:00 +5°C° 0 mm 0 mps 598 mmHg 95%
    06:00 +5°C° 0 mm 0 mps 598 mmHg 95%
    07:00 +6°C° 0 mm 0 mps 598 mmHg 95%
    08:00 +6°C° 0.1 mm 0 mps 599 mmHg 93%
    09:00 +8°C° 0.1 mm 1 mps 599 mmHg 92%
    10:00 +8°C° 0.1 mm 1 mps 600 mmHg 91%
    11:00 +8°C° 0.2 mm 1 mps 600 mmHg 89%
    12:00 +9°C° 0.2 mm 1 mps 600 mmHg 88%
    13:00 +9°C° 0.2 mm 1 mps 600 mmHg 87%
    14:00 +9°C° 0.1 mm 1 mps 599 mmHg 87%
    15:00 +8°C° 0.1 mm 1 mps 599 mmHg 88%
    16:00 +8°C° 0.1 mm 1 mps 599 mmHg 88%
    17:00 +7°C° 0 mm 1 mps 599 mmHg 91%
    18:00 +6°C° 0 mm 0 mps 599 mmHg 93%
    19:00 +5°C° 0 mm 0 mps 599 mmHg 96%
    20:00 +4°C° 0 mm 0 mps 598 mmHg 96%
    21:00 +5°C° 0 mm 1 mps 598 mmHg 96%
    22:00 +4°C° 0 mm 1 mps 598 mmHg 96%
    23:00 +4°C° 0 mm 1 mps 598 mmHg 96%
    Show more